Bloomington, IN

6:15 AM EDT on August 28, 2016 (GMT -0400)
Monroe County

Weather History for KBMG - August, 2012

Change the Weather History Date:

Wednesday, August 29, 2012

  Actual Average Record
Temperature  
Mean Temperature 72 °F 72 °F  
Max Temperature 87 °F 84 °F 97 °F (2007)
Min Temperature 56 °F 60 °F 53 °F (2011)
Degree Days  
Heating Degree Days 0 0  
Month to date heating degree days 0 0  
Since 1 June heating degree days 22 17  
Since 1 July heating degree days 0 2  
Cooling Degree Days 7 7  
Month to date cooling degree days 224 242  
Year to date cooling degree days 1186 808  
Since 1 June cooling degree days 985 726  
Growing Degree Days 22 (Base 50)    
Moisture  
Dew Point 58 °F    
Average Humidity 65    
Maximum Humidity 93    
Minimum Humidity 37    
Precipitation  
Precipitation 0.00 in 0.13 in 1.50 in (2003)
Month to date precipitation 2.89 3.27  
Year to date precipitation 16.30 32.94  
Sea Level Pressure  
Sea Level Pressure 30.03 in    
Wind  
Wind Speed 3 mph (NE)    
Max Wind Speed 13 mph    
Max Gust Speed 16 mph    
Visibility 10 miles    
Events      
T = Trace of Precipitation, MM = Missing Value Source: NWS Daily Summary

Daily Weather History Graph

Daily Weather History Graph

Search for Another Location

Airport or City:

Trip Planner

Search our weather history database for the weather conditions in past years. The results will help you decide how hot, cold, wet, or windy it might be!

Date:

Astronomy

Aug. 29, 2012 Rise Set
Actual Time 7:12 AM EDT 8:20 PM EDT
Civil Twilight 6:45 AM EDT 8:48 PM EDT
Nautical Twilight 6:12 AM EDT 9:21 PM EDT
Astronomical Twilight 5:38 AM EDT 9:55 PM EDT
Moon 7:00 PM EDT (8/29) 5:08 AM EDT (8/29)
Length of Visible Light 14h 03m
Length of Day
13h 08m
Waxing Gibbous, 96% of the Moon is Illuminated
Aug 29
Waxing Gibbous
Aug 31
Full
Sep 8
Last Quarter
Sep 15
New
Sep 22
First Quarter

Hourly Weather History & Observations

Time (EDT) Temp. Heat Index Dew Point Humidity Pressure Visibility Wind Dir Wind Speed Gust Speed Precip Events Conditions
12:53 AM 62.1 °F - 57.9 °F 86% 30.03 in 10.0 mi Calm Calm - N/A   Clear
1:53 AM 62.1 °F - 57.9 °F 86% 30.03 in 10.0 mi Calm Calm - N/A   Clear
2:53 AM 60.1 °F - 57.9 °F 93% 30.03 in 10.0 mi Calm Calm - N/A   Clear
3:53 AM 57.0 °F - 55.0 °F 93% 30.03 in 10.0 mi Calm Calm - N/A   Clear
4:53 AM 60.1 °F - 57.0 °F 90% 30.03 in 10.0 mi Calm Calm - N/A   Clear
5:53 AM 57.9 °F - 55.9 °F 93% 30.04 in 10.0 mi Calm Calm - N/A   Clear
6:53 AM 57.0 °F - 55.0 °F 93% 30.04 in 10.0 mi Calm Calm - N/A   Clear
7:53 AM 57.9 °F - 55.9 °F 93% 30.07 in 6.0 mi Calm Calm - N/A   Clear
8:53 AM 66.0 °F - 62.1 °F 87% 30.07 in 8.0 mi Calm Calm - N/A   Clear
9:53 AM 73.0 °F - 60.1 °F 64% 30.07 in 10.0 mi ESE 3.5 mph - N/A   Clear
10:53 AM 77.0 °F - 59.0 °F 54% 30.07 in 10.0 mi ESE 4.6 mph - N/A   Clear
11:53 AM 81.0 °F 80.8 °F 55.9 °F 42% 30.08 in 10.0 mi Calm Calm - N/A   Clear
12:53 PM 82.9 °F 82.6 °F 57.9 °F 42% 30.06 in 10.0 mi NNE 5.8 mph - N/A   Clear
1:53 PM 84.0 °F 84.0 °F 60.1 °F 44% 30.05 in 10.0 mi North 9.2 mph - N/A   Clear
2:53 PM 84.9 °F 84.8 °F 60.1 °F 43% 30.03 in 10.0 mi Variable 6.9 mph - N/A   Clear
3:53 PM 86.0 °F 84.9 °F 57.0 °F 37% 30.01 in 10.0 mi NNE 5.8 mph - N/A   Clear
4:53 PM 84.9 °F 83.7 °F 55.9 °F 37% 30.00 in 10.0 mi Variable 4.6 mph - N/A   Clear
5:53 PM 84.9 °F 83.9 °F 57.0 °F 38% 29.98 in 10.0 mi NNE 8.1 mph - N/A   Clear
6:53 PM 82.9 °F 82.6 °F 57.9 °F 42% 29.98 in 10.0 mi NNE 8.1 mph - N/A   Clear
7:53 PM 80.1 °F 80.7 °F 59.0 °F 48% 29.98 in 10.0 mi NE 6.9 mph - N/A   Clear
8:53 PM 69.1 °F - 62.1 °F 78% 29.99 in 10.0 mi Calm Calm - N/A   Clear
9:53 PM 66.0 °F - 61.0 °F 84% 30.01 in 10.0 mi Calm Calm - N/A   Clear
10:53 PM 64.0 °F - 61.0 °F 90% 30.01 in 10.0 mi Calm Calm - N/A   Clear
11:53 PM 64.0 °F - 60.1 °F 87% 30.01 in 10.0 mi Calm Calm - N/A   Clear